STARLINK-32346, 61849

Orbit data source: Space-Track

STARLINK-32346, 61849 is a payload satellite owned by SpaceX/Seattle (US) in LEO that was launched on Thu, 07 Nov 2024 UTC via an FALCON 9 launch vehicle from the Air Force Eastern Test Range (AFETR). Payload-class satellites include a variety of spacecraft equipped with specific instruments for various scientific and technological missions. These include communications satellites like Starlink; space stations such as the ISS; scientific satellites like the Hubble; Earth observation satellites from companies like Planet Labs, Umbra, and HawkEye 360; GPS; miniature CubeSats for education and research; and military/defense satellites.

Loading next visibility...
Identifier
61849, 2024-202E
Orbit
LEO
Country
Flag of USUS
Related business
Manufacturer
SpaceX/Seattle
Mission
Operational Commercial Communications
Bus & Motor
STARLINK V2M, Unknown motor
Mass
730 kg wet, ~700 kg dry
Launch date (UTC)
2024-11-07 (11 months ago)
Launch vehicle
FALCON 9
Launch site
Air Force Eastern Test Range (AFETR)
Object type
Payload
Rocket body
Debris
Shape & HBR
Box + 2 Pan, 17.7 m
Radar Cross Section
33.884 m², Large (>1 m²)

Expand to show TLE details & history
Last TLE update: 2 days ago

TLE from 2 days ago
0 STARLINK-32346
1 61849U 24202E   25290.41701956 -.00002977  00000-0 -98712-4 0  9997
2 61849  43.0011 316.0708 0000972 269.3021  90.7720 15.27576243 53549
Epoch: 2025-10-17T10:00Z
TLE epoch observation values (Epoch: 2025-10-17T10:00:30.489Z)
Latitude
0.00001°
Longitude
139.78108°
Altitude
482.845 km
Speed
7.626 km/s
True Right ascension
21h 04m 16s
True Declination
0° 00' 00"
Sunlit
Object was in full shadow at epoch
Visualization orbit readout
Latitude
Unknown
Longitude
Unknown
Altitude
Unknown
Speed
Unknown
Apparent Right ascension
Unknown
Apparent Declination
Unknown
Sunlit
N/A
Visualization observer readout
Local Sidereal Time
02:57:34
Azimuth
Unknown
Elevation
Unknown
Doppler factor
Unknown
Orbital elements
Apogee altitude
485.672 km
Perigee altitude
484.338 km
Semi-major axis
6,863.142 km
Eccentricity
0.0001
Inclination
43.0011°
RAAN
316.0708°
Arg. of periapsis
269.3021°
True anomaly
90.78314°
Mean anomaly
90.772°
Eccentric anomaly
90.77757°
Mean motion
3.81732 °/min
Orbital period
94.31 mins
BSTAR
-0.000098712
Loading maneuver chart data...
Computing Atmospheric mass density...
Loading historical data...
Loading historical data...
Loading historical data...
Loading historical data...
Loading historical data...
Loading historical data...
Loading historical data...

Documentation

Showing up to 5 results
|